Date,TemperatureHighF,TemperatureAvgF,TemperatureLowF,DewpointHighF,DewpointAvgF,DewpointLowF,HumidityHigh,HumidityAvg,HumidityLow,PressureMaxIn,PressureMinIn,WindSpeedMaxMPH,WindSpeedAvgMPH,GustSpeedMaxMPH,PrecipitationSumIn
2013-1-1,29,25,15,-100,-100,-100,0,0,100,0.00,40.00,0,-999,0,0.00
2013-1-2,31,20,11,-100,-100,-100,0,0,100,0.00,40.00,0,-999,0,0.00
2013-1-3,40,32,21,-100,-100,-100,0,0,100,0.00,40.00,0,-999,0,0.00
2013-1-4,40,31,19,-100,-100,-100,0,0,100,0.00,40.00,0,-999,0,0.00
2013-1-5,43,35,28,-100,-100,-100,0,0,100,0.00,40.00,0,-999,0,0.00
2013-1-6,39,34,24,-100,-100,-100,0,0,100,0.00,40.00,0,-999,0,0.00
2013-1-7,40,33,25,-100,-100,-100,0,0,100,0.00,40.00,0,-999,0,0.00
2013-1-8,50,40,32,-100,-100,-100,0,0,100,0.00,40.00,0,-999,0,0.00
2013-1-9,58,44,35,-100,-100,-100,0,0,100,0.00,40.00,0,-999,0,0.00
2013-1-10,57,45,39,-100,-100,-100,0,0,100,0.00,40.00,0,-999,0,0.00
2013-1-11,60,55,52,-100,-100,-100,0,0,100,0.00,40.00,0,-999,0,0.00
2013-1-12,57,50,40,-100,-100,-100,0,0,100,0.00,40.00,0,-999,0,0.00
2013-1-13,33,28,23,-100,-100,-100,0,0,100,0.00,40.00,0,-999,0,0.00
2013-1-14,34,26,20,-100,-100,-100,0,0,100,0.00,40.00,0,-999,0,0.00
2013-1-15,32,26,20,-100,-100,-100,0,0,100,0.00,40.00,0,-999,0,0.00
2013-1-16,42,35,23,-100,-100,-100,0,0,100,0.00,40.00,0,-999,0,0.00
2013-1-17,41,36,27,-100,-100,-100,0,0,100,0.00,40.00,0,-999,0,0.00
2013-1-18,45,38,27,-100,-100,-100,0,0,100,0.00,40.00,0,-999,0,0.00
2013-1-19,59,44,37,-100,-100,-100,0,0,100,0.00,40.00,0,-999,0,0.00
2013-1-20,40,30,26,-100,-100,-100,0,0,100,0.00,40.00,0,-999,0,0.00
2013-1-21,25,20,16,-100,-100,-100,0,0,100,0.00,40.00,0,-999,0,0.00
2013-1-22,21,18,11,-100,-100,-100,0,0,100,0.00,40.00,0,-999,0,0.00
2013-1-23,40,28,17,-100,-100,-100,0,0,100,0.00,40.00,0,-999,0,0.00
2013-1-24,29,24,15,-100,-100,-100,0,0,100,0.00,40.00,0,-999,0,0.00
2013-1-25,44,33,28,-100,-100,-100,0,0,100,0.00,40.00,0,-999,0,0.00
2013-1-26,39,32,22,-100,-100,-100,0,0,100,0.00,40.00,0,-999,0,0.00
2013-1-27,45,36,29,-100,-100,-100,0,0,100,0.00,40.00,0,-999,0,0.00
2013-1-28,63,55,45,-100,-100,-100,0,0,100,0.00,40.00,0,-999,0,0.00
2013-1-29,65,60,54,-100,-100,-100,0,0,100,0.00,40.00,0,-999,0,0.00
2013-1-30,53,39,31,-100,-100,-100,0,0,100,0.00,40.00,0,-999,0,0.00
2013-1-31,32,25,15,-100,-100,-100,0,0,100,0.00,40.00,0,-999,0,0.00
2013-2-1,28,20,11,-100,-100,-100,0,0,100,0.00,40.00,0,-999,0,0.00
2013-2-2,39,31,26,-100,-100,-100,0,0,100,0.00,40.00,0,-999,0,0.00
2013-2-3,37,31,27,-100,-100,-100,0,0,100,0.00,40.00,0,-999,0,0.00
2013-2-4,53,36,30,-100,-100,-100,0,0,100,0.00,40.00,0,-999,0,0.00
2013-2-5,50,38,32,-100,-100,-100,0,0,100,0.00,40.00,0,-999,0,0.00
2013-2-6,50,38,28,-100,-100,-100,0,0,100,0.00,40.00,0,-999,0,0.00
2013-2-7,49,43,38,-100,-100,-100,0,0,100,0.00,40.00,0,-999,0,0.00
2013-2-8,40,35,32,-100,-100,-100,0,0,100,0.00,40.00,0,-999,0,0.00
2013-2-9,44,37,32,-100,-100,-100,0,0,100,0.00,40.00,0,-999,0,0.00
2013-2-10,54,47,39,-100,-100,-100,0,0,100,0.00,40.00,0,-999,0,0.00
2013-2-11,50,42,34,-100,-100,-100,0,0,100,0.00,40.00,0,-999,0,0.00
2013-2-12,44,38,32,-100,-100,-100,0,0,100,0.00,40.00,0,-999,0,0.00
2013-2-13,55,46,35,-100,-100,-100,0,0,100,0.00,40.00,0,-999,0,0.00
2013-2-14,57,46,36,-100,-100,-100,0,0,100,0.00,40.00,0,-999,0,0.00
2013-2-15,40,35,32,-100,-100,-100,0,0,100,0.00,40.00,0,-999,0,0.00
2013-2-16,37,29,25,-100,-100,-100,0,0,100,0.00,40.00,0,-999,0,0.00
2013-2-17,45,32,22,-100,-100,-100,0,0,100,0.00,40.00,0,-999,0,0.00
2013-2-18,57,49,36,-100,-100,-100,0,0,100,0.00,40.00,0,-999,0,0.00
2013-2-19,32,30,25,-100,-100,-100,0,0,100,0.00,40.00,0,-999,0,0.00
2013-2-20,28,26,20,-100,-100,-100,0,0,100,0.00,40.00,0,-999,0,0.00
2013-2-21,33,28,23,-100,-100,-100,0,0,100,0.00,40.00,0,-999,0,0.00
2013-2-22,39,34,30,-100,-100,-100,0,0,100,0.00,40.00,0,-999,0,0.00
2013-2-23,33,25,20,-100,-100,-100,0,0,100,0.00,40.00,0,-999,0,0.00
2013-2-24,48,28,18,-100,-100,-100,0,0,100,0.00,40.00,0,-999,0,0.00
2013-2-25,47,40,32,-100,-100,-100,0,0,100,0.00,40.00,0,-999,0,0.00
2013-2-26,41,37,34,-100,-100,-100,0,0,100,0.00,40.00,0,-999,0,0.00
2013-2-27,36,35,34,-100,-100,-100,0,0,100,0.00,40.00,0,-999,0,0.00
2013-2-28,35,35,34,-100,-100,-100,0,0,100,0.00,40.00,0,-999,0,0.00
2013-3-1,35,33,31,-100,-100,-100,0,0,100,0.00,40.00,0,-999,0,0.00
2013-3-2,37,32,28,-100,-100,-100,0,0,100,0.00,40.00,0,-999,0,0.00
2013-3-3,41,32,25,-100,-100,-100,0,0,100,0.00,40.00,0,-999,0,0.00
2013-3-4,42,38,33,-100,-100,-100,0,0,100,0.00,40.00,0,-999,0,0.00
2013-3-5,40,35,32,-100,-100,-100,0,0,100,0.00,40.00,0,-999,0,0.00
2013-3-6,33,32,32,-100,-100,-100,0,0,100,0.00,40.00,0,-999,0,0.00
2013-3-7,43,35,31,-100,-100,-100,0,0,100,0.00,40.00,0,-999,0,0.00
2013-3-8,51,40,32,-100,-100,-100,0,0,100,0.00,40.00,0,-999,0,0.00
2013-3-9,59,50,41,-100,-100,-100,0,0,100,0.00,40.00,0,-999,0,0.00
2013-3-10,63,55,51,-100,-100,-100,0,0,100,0.00,40.00,0,-999,0,0.00
2013-3-11,51,40,36,-100,-100,-100,0,0,100,0.00,40.00,0,-999,0,0.00
2013-3-12,48,39,32,-100,-100,-100,0,0,100,0.00,40.00,0,-999,0,0.00
2013-3-13,41,34,29,-100,-100,-100,0,0,100,0.00,40.00,0,-999,0,0.00
2013-3-14,49,36,27,-100,-100,-100,0,0,100,0.00,40.00,0,-999,0,0.00
2013-3-15,66,48,33,-100,-100,-100,0,0,100,0.00,40.00,0,-999,0,0.00
2013-3-16,57,45,39,-100,-100,-100,0,0,100,0.00,40.00,0,-999,0,0.00
2013-3-17,39,37,35,-100,-100,-100,0,0,100,0.00,40.00,0,-999,0,0.00
2013-3-18,46,40,34,-100,-100,-100,0,0,100,0.00,40.00,0,-999,0,0.00
2013-3-19,45,37,31,-100,-100,-100,0,0,100,0.00,40.00,0,-999,0,0.00
2013-3-20,32,30,28,-100,-100,-100,0,0,100,0.00,40.00,0,-999,0,0.00
2013-3-21,39,31,23,-100,-100,-100,0,0,100,0.00,40.00,0,-999,0,0.00
2013-3-22,43,36,25,-100,-100,-100,0,0,100,0.00,40.00,0,-999,0,0.00
2013-3-23,57,46,36,-100,-100,-100,0,0,100,0.00,40.00,0,-999,0,0.00
2013-3-24,41,34,32,-100,-100,-100,0,0,100,0.00,40.00,0,-999,0,0.00
2013-3-25,35,33,32,-100,-100,-100,0,0,100,0.00,40.00,0,-999,0,0.00
2013-3-26,39,34,32,-100,-100,-100,0,0,100,0.00,40.00,0,-999,0,0.00
2013-3-27,43,37,28,-100,-100,-100,0,0,100,0.00,40.00,0,-999,0,0.00
2013-3-28,50,40,26,-100,-100,-100,0,0,100,0.00,40.00,0,-999,0,0.00
2013-3-29,59,49,40,-100,-100,-100,0,0,100,0.00,40.00,0,-999,0,0.00
2013-3-30,57,49,38,-100,-100,-100,0,0,100,0.00,40.00,0,-999,0,0.00
2013-3-31,62,54,48,-100,-100,-100,0,0,100,0.00,40.00,0,-999,0,0.00
2013-4-1,49,42,36,-100,-100,-100,0,0,100,0.00,40.00,0,-999,0,0.00
2013-4-2,45,38,32,-100,-100,-100,0,0,100,0.00,40.00,0,-999,0,0.00
2013-4-3,53,43,32,-100,-100,-100,0,0,100,0.00,40.00,0,-999,0,0.00
2013-4-4,61,50,40,-100,-100,-100,0,0,100,0.00,40.00,0,-999,0,0.00
2013-4-5,67,56,40,-100,-100,-100,0,0,100,0.00,40.00,0,-999,0,0.00
2013-4-6,69,61,51,-100,-100,-100,0,0,100,0.00,40.00,0,-999,0,0.00
2013-4-7,79,66,50,-100,-100,-100,0,0,100,0.00,40.00,0,-999,0,0.00
2013-4-8,74,67,59,-100,-100,-100,0,0,100,0.00,40.00,0,-999,0,0.00
2013-4-9,77,71,65,-100,-100,-100,0,0,100,0.00,40.00,0,-999,0,0.00
2013-4-10,78,70,63,-100,-100,-100,0,0,100,0.00,40.00,0,-999,0,0.00
2013-4-11,59,50,42,-100,-100,-100,0,0,100,0.00,40.00,0,-999,0,0.00
2013-4-12,47,44,40,-100,-100,-100,0,0,100,0.00,40.00,0,-999,0,0.00
2013-4-13,59,51,37,-100,-100,-100,0,0,100,0.00,40.00,0,-999,0,0.00
2013-4-14,77,64,50,-100,-100,-100,0,0,100,0.00,40.00,0,-999,0,0.00
2013-4-15,71,63,55,-100,-100,-100,0,0,100,0.00,40.00,0,-999,0,0.00
2013-4-16,51,50,48,-100,-100,-100,0,0,100,0.00,40.00,0,-999,0,0.00
2013-4-17,82,68,49,-100,-100,-100,0,0,100,0.00,40.00,0,-999,0,0.00
2013-4-18,75,61,46,-100,-100,-100,0,0,100,0.00,40.00,0,-999,0,0.00
2013-4-19,48,43,39,-100,-100,-100,0,0,100,0.00,40.00,0,-999,0,0.00
2013-4-20,53,43,35,-100,-100,-100,0,0,100,0.00,40.00,0,-999,0,0.00
2013-4-21,62,48,41,-100,-100,-100,0,0,100,0.00,40.00,0,-999,0,0.00
2013-4-22,71,59,46,-100,-100,-100,0,0,100,0.00,40.00,0,-999,0,0.00
2013-4-23,62,57,44,-100,-100,-100,0,0,100,0.00,40.00,0,-999,0,0.00
2013-4-24,52,45,39,-100,-100,-100,0,0,100,0.00,40.00,0,-999,0,0.00
2013-4-25,63,52,41,-100,-100,-100,0,0,100,0.00,40.00,0,-999,0,0.00
2013-4-26,63,56,49,-100,-100,-100,0,0,100,0.00,40.00,0,-999,0,0.00
2013-4-27,56,54,52,-100,-100,-100,0,0,100,0.00,40.00,0,-999,0,0.00
2013-4-28,60,56,53,-100,-100,-100,0,0,100,0.00,40.00,0,-999,0,0.00
2013-4-29,75,61,48,-100,-100,-100,0,0,100,0.00,40.00,0,-999,0,0.00
2013-4-30,84,78,61,-100,-100,-100,0,0,100,0.00,40.00,0,-999,0,0.00
2013-5-1,84,72,60,-100,-100,-100,0,0,100,0.00,40.00,0,-999,0,0.00
2013-5-2,77,64,52,-100,-100,-100,0,0,100,0.00,40.00,0,-999,0,0.00
2013-5-3,63,54,50,-100,-100,-100,0,0,100,0.00,40.00,0,-999,0,0.00
2013-5-4,51,49,46,-100,-100,-100,0,0,100,0.00,40.00,0,-999,0,0.00
2013-5-5,61,56,50,-100,-100,-100,0,0,100,0.00,40.00,0,-999,0,0.00
2013-5-6,67,60,55,-100,-100,-100,0,0,100,0.00,40.00,0,-999,0,0.00
2013-5-7,79,68,59,-100,-100,-100,0,0,100,0.00,40.00,0,-999,0,0.00
2013-5-8,85,71,56,-100,-100,-100,0,0,100,0.00,40.00,0,-999,0,0.00
2013-5-9,68,65,62,-100,-100,-100,0,0,100,0.00,40.00,0,-999,0,0.00
2013-5-10,69,63,54,-100,-100,-100,0,0,100,0.00,40.00,0,-999,0,0.00
2013-5-11,66,57,49,-100,-100,-100,0,0,100,0.00,40.00,0,-999,0,0.00
2013-5-12,61,51,41,-100,-100,-100,0,0,100,0.00,40.00,0,-999,0,0.00
2013-5-13,73,60,41,-100,-100,-100,0,0,100,0.00,40.00,0,-999,0,0.00
2013-5-14,91,71,56,-100,-100,-100,0,0,100,0.00,40.00,0,-999,0,0.00
2013-5-15,92,80,70,-100,-100,-100,0,0,100,0.00,40.00,0,-999,0,0.00
2013-5-16,81,73,65,-100,-100,-100,0,0,100,0.00,40.00,0,-999,0,0.00
2013-5-17,78,71,65,-100,-100,-100,0,0,100,0.00,40.00,0,-999,0,0.00
2013-5-18,83,74,63,-100,-100,-100,0,0,100,0.00,40.00,0,-999,0,0.00
2013-5-19,88,77,68,-100,-100,-100,0,0,100,0.00,40.00,0,-999,0,0.00
2013-5-20,84,75,64,-100,-100,-100,0,0,100,0.00,40.00,0,-999,0,0.00
2013-5-21,82,74,64,-100,-100,-100,0,0,100,0.00,40.00,0,-999,0,0.00
2013-5-22,77,70,63,-100,-100,-100,0,0,100,0.00,40.00,0,-999,0,0.00
2013-5-23,63,61,56,-100,-100,-100,0,0,100,0.00,40.00,0,-999,0,0.00
2013-5-24,71,60,44,-100,-100,-100,0,0,100,0.00,40.00,0,-999,0,0.00
2013-5-25,64,58,52,-100,-100,-100,0,0,100,0.00,40.00,0,-999,0,0.00
2013-5-26,71,64,53,-100,-100,-100,0,0,100,0.00,40.00,0,-999,0,0.00
2013-5-27,84,70,65,-100,-100,-100,0,0,100,0.00,40.00,0,-999,0,0.00
2013-5-28,85,74,67,-100,-100,-100,0,0,100,0.00,40.00,0,-999,0,0.00
2013-5-29,87,76,68,-100,-100,-100,0,0,100,0.00,40.00,0,-999,0,0.00
2013-5-30,83,77,68,-100,-100,-100,0,0,100,0.00,40.00,0,-999,0,0.00
2013-5-31,78,72,66,-100,-100,-100,0,0,100,0.00,40.00,0,-999,0,0.00
2013-6-1,75,69,64,-100,-100,-100,0,0,100,0.00,40.00,0,-999,0,0.00
2013-6-2,68,64,61,-100,-100,-100,0,0,100,0.00,40.00,0,-999,0,0.00
2013-6-3,66,60,58,-100,-100,-100,0,0,100,0.00,40.00,0,-999,0,0.00
2013-6-4,71,71,71,-100,-100,-100,0,0,100,0.00,40.00,0,-999,0,0.00
2013-6-5,85,79,70,-100,-100,-100,0,0,100,0.00,40.00,0,-999,0,0.00
2013-6-6,81,72,66,-100,-100,-100,0,0,100,0.00,40.00,0,-999,0,0.00
2013-6-7,78,70,59,-100,-100,-100,0,0,100,0.00,40.00,0,-999,0,0.00
2013-6-8,81,72,58,-100,-100,-100,0,0,100,0.00,40.00,0,-999,0,0.00
2013-6-9,83,71,65,-100,-100,-100,0,0,100,0.00,40.00,0,-999,0,0.00
2013-6-10,81,71,64,-100,-100,-100,0,0,100,0.00,40.00,0,-999,0,0.00
2013-6-11,90,78,61,-100,-100,-100,0,0,100,0.00,40.00,0,-999,0,0.00
2013-6-12,95,87,75,-100,-100,-100,0,0,100,0.00,40.00,0,-999,0,0.00
2013-6-13,89,81,71,-100,-100,-100,0,0,100,0.00,40.00,0,-999,0,0.00
2013-6-14,87,76,62,-100,-100,-100,0,0,100,0.00,40.00,0,-999,0,0.00
2013-6-15,85,76,68,-100,-100,-100,0,0,100,0.00,40.00,0,-999,0,0.00
2013-6-16,83,74,68,-100,-100,-100,0,0,100,0.00,40.00,0,-999,0,0.00
2013-6-17,88,78,70,-100,-100,-100,0,0,100,0.00,40.00,0,-999,0,0.00
2013-6-18,89,76,65,-100,-100,-100,0,0,100,0.00,40.00,0,-999,0,0.00
2013-6-19,87,76,64,-100,-100,-100,0,0,100,0.00,40.00,0,-999,0,0.00
2013-6-20,91,80,70,-100,-100,-100,0,0,100,0.00,40.00,0,-999,0,0.00
2013-6-22,90,75,69,-100,-100,-100,0,0,100,0.00,40.00,0,-999,0,0.00
2013-6-23,81,72,68,-100,-100,-100,0,0,100,0.00,40.00,0,-999,0,0.00
2013-6-24,91,80,68,-100,-100,-100,0,0,100,0.00,40.00,0,-999,0,0.00
2013-6-25,92,82,75,-100,-100,-100,0,0,100,0.00,40.00,0,-999,0,0.00
2013-6-26,86,79,74,-100,-100,-100,0,0,100,0.00,40.00,0,-999,0,0.00
2013-6-27,93,84,76,-100,-100,-100,0,0,100,0.00,40.00,0,-999,0,0.00
2013-6-28,89,81,73,-100,-100,-100,0,0,100,0.00,40.00,0,-999,0,0.00
2013-6-29,78,72,67,-100,-100,-100,0,0,100,0.00,40.00,0,-999,0,0.00
2013-6-30,77,70,65,-100,-100,-100,0,0,100,0.00,40.00,0,-999,0,0.00
2013-7-1,79,74,64,-100,-100,-100,0,0,100,0.00,40.00,0,-999,0,0.00
2013-7-2,69,66,64,-100,-100,-100,0,0,100,0.00,40.00,0,-999,0,0.00
2013-7-3,82,73,63,-100,-100,-100,0,0,100,0.00,40.00,0,-999,0,0.00
2013-7-4,86,74,68,-100,-100,-100,0,0,100,0.00,40.00,0,-999,0,0.00
2013-7-5,83,76,68,-100,-100,-100,0,0,100,0.00,40.00,0,-999,0,0.00
2013-7-6,88,74,69,-100,-100,-100,0,0,100,0.00,40.00,0,-999,0,0.00
2013-7-7,90,78,68,-100,-100,-100,0,0,100,0.00,40.00,0,-999,0,0.00
2013-7-8,90,79,75,-100,-100,-100,0,0,100,0.00,40.00,0,-999,0,0.00
2013-7-9,96,88,77,-100,-100,-100,0,0,100,0.00,40.00,0,-999,0,0.00
2013-7-10,87,79,74,-100,-100,-100,0,0,100,0.00,40.00,0,-999,0,0.00
2013-7-11,85,76,68,-100,-100,-100,0,0,100,0.00,40.00,0,-999,0,0.00
2013-7-12,86,74,60,-100,-100,-100,0,0,100,0.00,40.00,0,-999,0,0.00
2013-7-13,86,74,65,-100,-100,-100,0,0,100,0.00,40.00,0,-999,0,0.00
2013-7-14,91,80,67,-100,-100,-100,0,0,100,0.00,40.00,0,-999,0,0.00
2013-7-15,89,81,75,-100,-100,-100,0,0,100,0.00,40.00,0,-999,0,0.00
2013-7-16,94,86,76,-100,-100,-100,0,0,100,0.00,40.00,0,-999,0,0.00
2013-7-17,97,84,75,-100,-100,-100,0,0,100,0.00,40.00,0,-999,0,0.00
2013-7-18,96,86,76,-100,-100,-100,0,0,100,0.00,40.00,0,-999,0,0.00
2013-7-19,96,86,77,-100,-100,-100,0,0,100,0.00,40.00,0,-999,0,0.00
2013-7-20,95,82,75,-100,-100,-100,0,0,100,0.00,40.00,0,-999,0,0.00
2013-7-21,85,76,71,-100,-100,-100,0,0,100,0.00,40.00,0,-999,0,0.00
2013-7-22,89,79,70,-100,-100,-100,0,0,100,0.00,40.00,0,-999,0,0.00
2013-7-23,89,81,74,-100,-100,-100,0,0,100,0.00,40.00,0,-999,0,0.00
2013-7-24,78,71,63,-100,-100,-100,0,0,100,0.00,40.00,0,-999,0,0.00
2013-7-25,84,72,59,-100,-100,-100,0,0,100,0.00,40.00,0,-999,0,0.00
2013-7-26,76,71,63,-100,-100,-100,0,0,100,0.00,40.00,0,-999,0,0.00
2013-7-27,76,68,58,-100,-100,-100,0,0,100,0.00,40.00,0,-999,0,0.00
2013-7-28,80,68,50,-100,-100,-100,0,0,100,0.00,40.00,0,-999,0,0.00
2013-7-29,84,72,55,-100,-100,-100,0,0,100,0.00,40.00,0,-999,0,0.00
2013-7-30,72,70,67,-100,-100,-100,0,0,100,0.00,40.00,0,-999,0,0.00
2013-7-31,80,74,68,-100,-100,-100,0,0,100,0.00,40.00,0,-999,0,0.00
2013-8-1,86,78,66,-100,-100,-100,0,0,100,0.00,40.00,0,-999,0,0.00
2013-8-2,80,74,68,-100,-100,-100,0,0,100,0.00,40.00,0,-999,0,0.00
2013-8-3,86,78,71,-100,-100,-100,0,0,100,0.00,40.00,0,-999,0,0.00
2013-8-4,82,73,60,-100,-100,-100,0,0,100,0.00,40.00,0,-999,0,0.00
2013-8-5,79,71,63,-100,-100,-100,0,0,100,0.00,40.00,0,-999,0,0.00
2013-8-6,89,76,69,-100,-100,-100,0,0,100,0.00,40.00,0,-999,0,0.00
2013-8-7,91,78,73,-100,-100,-100,0,0,100,0.00,40.00,0,-999,0,0.00
2013-8-8,83,77,71,-100,-100,-100,0,0,100,0.00,40.00,0,-999,0,0.00
2013-8-9,86,77,67,-100,-100,-100,0,0,100,0.00,40.00,0,-999,0,0.00
2013-8-10,86,77,67,-100,-100,-100,0,0,100,0.00,40.00,0,-999,0,0.00
2013-8-11,86,78,60,-100,-100,-100,0,0,100,0.00,40.00,0,-999,0,0.00
2013-8-12,83,74,66,-100,-100,-100,0,0,100,0.00,40.00,0,-999,0,0.00
2013-8-13,79,73,65,-100,-100,-100,0,0,100,0.00,40.00,0,-999,0,0.00
2013-8-14,75,66,53,-100,-100,-100,0,0,100,0.00,40.00,0,-999,0,0.00
2013-8-15,77,65,53,-100,-100,-100,0,0,100,0.00,40.00,0,-999,0,0.00
2013-8-16,80,70,59,-100,-100,-100,0,0,100,0.00,40.00,0,-999,0,0.00
2013-8-17,82,71,58,-100,-100,-100,0,0,100,0.00,40.00,0,-999,0,0.00
2013-8-18,86,75,60,-100,-100,-100,0,0,100,0.00,40.00,0,-999,0,0.00
2013-8-19,87,76,62,-100,-100,-100,0,0,100,0.00,40.00,0,-999,0,0.00
2013-8-20,89,75,64,-100,-100,-100,0,0,100,0.00,40.00,0,-999,0,0.00
2013-8-21,91,81,71,-100,-100,-100,0,0,100,0.00,40.00,0,-999,0,0.00
2013-8-22,92,81,71,-100,-100,-100,0,0,100,0.00,40.00,0,-999,0,0.00
2013-8-23,90,79,68,-100,-100,-100,0,0,100,0.00,40.00,0,-999,0,0.00
2013-8-24,89,82,69,-100,-100,-100,0,0,100,0.00,40.00,0,-999,0,0.00
2013-8-25,92,79,67,-100,-100,-100,0,0,100,0.00,40.00,0,-999,0,0.00
2013-8-26,96,83,72,-100,-100,-100,0,0,100,0.00,40.00,0,-999,0,0.00
2013-8-27,92,81,74,-100,-100,-100,0,0,100,0.00,40.00,0,-999,0,0.00
2013-8-28,96,94,81,-100,-100,-100,0,0,100,0.00,40.00,0,-999,0,0.00
2013-8-29,93,84,70,-100,-100,-100,0,0,100,0.00,40.00,0,-999,0,0.00
2013-8-30,100,88,75,-100,-100,-100,0,0,100,0.00,40.00,0,-999,0,0.00
2013-8-31,93,84,78,-100,-100,-100,0,0,100,0.00,40.00,0,-999,0,0.00
2013-9-1,91,82,74,-100,-100,-100,0,0,100,0.00,40.00,0,-999,0,0.00
2013-9-2,86,77,67,-100,-100,-100,0,0,100,0.00,40.00,0,-999,0,0.00
2013-9-3,83,72,59,-100,-100,-100,0,0,100,0.00,40.00,0,-999,0,0.00
2013-9-4,87,78,58,-100,-100,-100,0,0,100,0.00,40.00,0,-999,0,0.00
2013-9-5,91,76,61,-100,-100,-100,0,0,100,0.00,40.00,0,-999,0,0.00
2013-9-6,90,78,64,-100,-100,-100,0,0,100,0.00,40.00,0,-999,0,0.00
2013-9-7,93,82,68,-100,-100,-100,0,0,100,0.00,40.00,0,-999,0,0.00
2013-9-8,88,78,73,-100,-100,-100,0,0,100,0.00,40.00,0,-999,0,0.00
2013-9-9,99,84,74,-100,-100,-100,0,0,100,0.00,40.00,0,-999,0,0.00
2013-9-10,100,86,75,-100,-100,-100,0,0,100,0.00,40.00,0,-999,0,0.00
2013-9-11,97,83,73,-100,-100,-100,0,0,100,0.00,40.00,0,-999,0,0.00
2013-9-12,86,76,68,-100,-100,-100,0,0,100,0.00,40.00,0,-999,0,0.00
2013-9-13,75,67,57,-100,-100,-100,0,0,100,0.00,40.00,0,-999,0,0.00
2013-9-14,77,62,45,-100,-100,-100,0,0,100,0.00,40.00,0,-999,0,0.00
2013-9-15,81,71,57,-100,-100,-100,0,0,100,0.00,40.00,0,-999,0,0.00
2013-9-16,73,68,59,-100,-100,-100,0,0,100,0.00,40.00,0,-999,0,0.00
2013-9-17,78,68,58,-100,-100,-100,0,0,100,0.00,40.00,0,-999,0,0.00
2013-9-18,76,70,65,-100,-100,-100,0,0,100,0.00,40.00,0,-999,0,0.00
2013-9-19,94,81,72,-100,-100,-100,0,0,100,0.00,40.00,0,-999,0,0.00
2013-9-20,78,70,62,-100,-100,-100,0,0,100,0.00,40.00,0,-999,0,0.00
2013-9-21,75,62,53,-100,-100,-100,0,0,100,0.00,40.00,0,-999,0,0.00
2013-9-22,77,64,49,-100,-100,-100,0,0,100,0.00,40.00,0,-999,0,0.00
2013-9-23,79,68,53,-100,-100,-100,0,0,100,0.00,40.00,0,-999,0,0.00
2013-9-24,80,66,55,-100,-100,-100,0,0,100,0.00,40.00,0,-999,0,0.00
2013-9-25,85,74,63,-100,-100,-100,0,0,100,0.00,40.00,0,-999,0,0.00
2013-9-26,86,76,62,-100,-100,-100,0,0,100,0.00,40.00,0,-999,0,0.00
2013-9-27,85,74,60,-100,-100,-100,0,0,100,0.00,40.00,0,-999,0,0.00
2013-9-28,85,75,63,-100,-100,-100,0,0,100,0.00,40.00,0,-999,0,0.00
2013-9-29,77,69,56,-100,-100,-100,0,0,100,0.00,40.00,0,-999,0,0.00
2013-9-30,78,66,49,-100,-100,-100,0,0,100,0.00,40.00,0,-999,0,0.00
2013-10-1,73,71,70,-100,-100,-100,0,0,100,0.00,40.00,0,-999,0,0.00
2013-10-2,84,75,69,-100,-100,-100,0,0,100,0.00,40.00,0,-999,0,0.00
2013-10-3,85,77,69,-100,-100,-100,0,0,100,0.00,40.00,0,-999,0,0.00
2013-10-4,88,80,69,-100,-100,-100,0,0,100,0.00,40.00,0,-999,0,0.00
2013-10-5,78,74,71,-100,-100,-100,0,0,100,0.00,40.00,0,-999,0,0.00
2013-10-6,64,58,50,-100,-100,-100,0,0,100,0.00,40.00,0,-999,0,0.00
2013-10-7,72,57,47,-100,-100,-100,0,0,100,0.00,40.00,0,-999,0,0.00
2013-10-8,77,63,50,-100,-100,-100,0,0,100,0.00,40.00,0,-999,0,0.00
2013-10-9,79,67,50,-100,-100,-100,0,0,100,0.00,40.00,0,-999,0,0.00
2013-10-10,83,71,54,-100,-100,-100,0,0,100,0.00,40.00,0,-999,0,0.00
2013-10-11,81,68,60,-100,-100,-100,0,0,100,0.00,40.00,0,-999,0,0.00
2013-10-12,78,67,53,-100,-100,-100,0,0,100,0.00,40.00,0,-999,0,0.00
2013-10-13,75,63,45,-100,-100,-100,0,0,100,0.00,40.00,0,-999,0,0.00
2013-10-14,73,58,44,-100,-100,-100,0,0,100,0.00,40.00,0,-999,0,0.00
2013-10-15,68,63,58,-100,-100,-100,0,0,100,0.00,40.00,0,-999,0,0.00
2013-10-16,59,54,45,-100,-100,-100,0,0,100,0.00,40.00,0,-999,0,0.00
2013-10-17,64,52,49,-100,-100,-100,0,0,100,0.00,40.00,0,-999,0,0.00
2013-10-18,62,54,44,-100,-100,-100,0,0,100,0.00,40.00,0,-999,0,0.00
2013-10-19,59,50,42,-100,-100,-100,0,0,100,0.00,40.00,0,-999,0,0.00
2013-10-20,70,59,42,-100,-100,-100,0,0,100,0.00,40.00,0,-999,0,0.00
2013-10-21,58,51,41,-100,-100,-100,0,0,100,0.00,40.00,0,-999,0,0.00
2013-10-22,53,43,34,-100,-100,-100,0,0,100,0.00,40.00,0,-999,0,0.00
2013-10-23,50,44,40,-100,-100,-100,0,0,100,0.00,40.00,0,-999,0,0.00
2013-10-24,48,42,31,-100,-100,-100,0,0,100,0.00,40.00,0,-999,0,0.00
2013-10-25,57,38,29,-100,-100,-100,0,0,100,0.00,40.00,0,-999,0,0.00
2013-10-26,64,49,39,-100,-100,-100,0,0,100,0.00,40.00,0,-999,0,0.00
2013-10-27,61,45,32,-100,-100,-100,0,0,100,0.00,40.00,0,-999,0,0.00
2013-10-28,69,49,36,-100,-100,-100,0,0,100,0.00,40.00,0,-999,0,0.00
2013-10-29,58,54,46,-100,-100,-100,0,0,100,0.00,40.00,0,-999,0,0.00
2013-10-30,70,62,56,-100,-100,-100,0,0,100,0.00,40.00,0,-999,0,0.00
2013-10-31,68,64,53,-100,-100,-100,0,0,100,0.00,40.00,0,-999,0,0.00
2013-11-1,59,52,46,-100,-100,-100,0,0,100,0.00,40.00,0,-999,0,0.00
2013-11-2,54,47,39,-100,-100,-100,0,0,100,0.00,40.00,0,-999,0,0.00
2013-11-3,59,47,32,-100,-100,-100,0,0,100,0.00,40.00,0,-999,0,0.00
2013-11-4,57,52,47,-100,-100,-100,0,0,100,0.00,40.00,0,-999,0,0.00
2013-11-5,62,57,52,-100,-100,-100,0,0,100,0.00,40.00,0,-999,0,0.00
2013-11-6,59,51,37,-100,-100,-100,0,0,100,0.00,40.00,0,-999,0,0.00
2013-11-7,55,39,32,-100,-100,-100,0,0,100,0.00,40.00,0,-999,0,0.00
2013-11-8,56,48,32,-100,-100,-100,0,0,100,0.00,40.00,0,-999,0,0.00
2013-11-9,68,52,44,-100,-100,-100,0,0,100,0.00,40.00,0,-999,0,0.00
2013-11-10,57,43,37,-100,-100,-100,0,0,100,0.00,40.00,0,-999,0,0.00
2013-11-11,55,44,32,-100,-100,-100,0,0,100,0.00,40.00,0,-999,0,0.00
2013-11-12,35,31,25,-100,-100,-100,0,0,100,0.00,40.00,0,-999,0,0.00
2013-11-13,43,33,22,-100,-100,-100,0,0,100,0.00,40.00,0,-999,0,0.00
2013-11-14,57,45,31,-100,-100,-100,0,0,100,0.00,40.00,0,-999,0,0.00
2013-11-15,56,49,42,-100,-100,-100,0,0,100,0.00,40.00,0,-999,0,0.00
2013-11-16,64,57,49,-100,-100,-100,0,0,100,0.00,40.00,0,-999,0,0.00
2013-11-17,74,62,48,-100,-100,-100,0,0,100,0.00,40.00,0,-999,0,0.00
2013-11-18,52,44,35,-100,-100,-100,0,0,100,0.00,40.00,0,-999,0,0.00
2013-11-19,48,38,32,-100,-100,-100,0,0,100,0.00,40.00,0,-999,0,0.00
2013-11-20,50,41,34,-100,-100,-100,0,0,100,0.00,40.00,0,-999,0,0.00
2013-11-21,51,50,47,-100,-100,-100,0,0,100,0.00,40.00,0,-999,0,0.00
2013-11-22,50,41,34,-100,-100,-100,0,0,100,0.00,40.00,0,-999,0,0.00
2013-11-23,33,29,23,-100,-100,-100,0,0,100,0.00,40.00,0,-999,0,0.00
2013-11-24,35,23,18,-100,-100,-100,0,0,100,0.00,40.00,0,-999,0,0.00
2013-11-25,35,33,27,-100,-100,-100,0,0,100,0.00,40.00,0,-999,0,0.00
2013-11-26,41,34,27,-100,-100,-100,0,0,100,0.00,40.00,0,-999,0,0.00
2013-11-27,32,26,21,-100,-100,-100,0,0,100,0.00,40.00,0,-999,0,0.00
2013-11-28,45,30,23,-100,-100,-100,0,0,100,0.00,40.00,0,-999,0,0.00
2013-11-29,42,33,22,-100,-100,-100,0,0,100,0.00,40.00,0,-999,0,0.00
2013-11-30,56,43,34,-100,-100,-100,0,0,100,0.00,40.00,0,-999,0,0.00
2013-12-1,57,45,35,-100,-100,-100,0,0,100,0.00,40.00,0,-999,0,0.00
2013-12-2,51,43,37,-100,-100,-100,0,0,100,0.00,40.00,0,-999,0,0.00
2013-12-3,57,51,46,-100,-100,-100,0,0,100,0.00,40.00,0,-999,0,0.00
2013-12-4,66,58,43,-100,-100,-100,0,0,100,0.00,40.00,0,-999,0,0.00
2013-12-5,44,30,25,-100,-100,-100,0,0,100,0.00,40.00,0,-999,0,0.00
2013-12-6,25,23,18,-100,-100,-100,0,0,100,0.00,40.00,0,-999,0,0.00
2013-12-7,28,21,14,-100,-100,-100,0,0,100,0.00,40.00,0,-999,0,0.00
2013-12-8,30,27,23,-100,-100,-100,0,0,100,0.00,40.00,0,-999,0,0.00
2013-12-9,29,26,23,-100,-100,-100,0,0,100,0.00,40.00,0,-999,0,0.00
2013-12-10,37,24,16,-100,-100,-100,0,0,100,0.00,40.00,0,-999,0,0.00
2013-12-11,34,24,11,-100,-100,-100,0,0,100,0.00,40.00,0,-999,0,0.00
2013-12-12,32,19,6,-100,-100,-100,0,0,100,0.00,40.00,0,-999,0,0.00
2013-12-13,39,30,23,-100,-100,-100,0,0,100,0.00,40.00,0,-999,0,0.00
2013-12-14,36,34,28,-100,-100,-100,0,0,100,0.00,40.00,0,-999,0,0.00
2013-12-15,32,27,21,-100,-100,-100,0,0,100,0.00,40.00,0,-999,0,0.00
2013-12-16,32,29,26,-100,-100,-100,0,0,100,0.00,40.00,0,-999,0,0.00
2013-12-17,34,27,23,-100,-100,-100,0,0,100,0.00,40.00,0,-999,0,0.00
2013-12-18,42,33,20,-100,-100,-100,0,0,100,0.00,40.00,0,-999,0,0.00
2013-12-19,51,46,39,-100,-100,-100,0,0,100,0.00,40.00,0,-999,0,0.00
2013-12-20,64,54,41,-100,-100,-100,0,0,100,0.00,40.00,0,-999,0,0.00
2013-12-21,36,35,34,-100,-100,-100,0,0,100,0.00,40.00,0,-999,0,0.00
2013-12-22,36,34,31,-100,-100,-100,0,0,100,0.00,40.00,0,-999,0,0.00
2013-12-23,29,25,16,-100,-100,-100,0,0,100,0.00,40.00,0,-999,0,0.00
2013-12-24,13,12,10,-100,-100,-100,0,0,100,0.00,40.00,0,-999,0,0.00
2013-12-25,34,31,26,-100,-100,-100,0,0,100,0.00,40.00,0,-999,0,0.00
2013-12-26,42,34,27,-100,-100,-100,0,0,100,0.00,40.00,0,-999,0,0.00
2013-12-27,53,37,32,-100,-100,-100,0,0,100,0.00,40.00,0,-999,0,0.00
2013-12-28,55,45,34,-100,-100,-100,0,0,100,0.00,40.00,0,-999,0,0.00
2013-12-29,41,31,18,-100,-100,-100,0,0,100,0.00,40.00,0,-999,0,0.00
2013-12-30,25,18,10,-100,-100,-100,0,0,100,0.00,40.00,0,-999,0,0.00
2013-12-31,39,30,23,-100,-100,-100,0,0,100,0.00,40.00,0,-999,0,0.00
2014-1-1,47,35,27,-100,-100,-100,0,0,100,0.00,40.00,0,-999,0,0.00
2014-1-2,23,16,5,-100,-100,-100,0,0,100,0.00,40.00,0,-999,0,0.00